EW1578 Weather Reports


Display with metric or nautical units.
time (UTC)temp
F
wind
direction
speed
MPH
gust
MPH
rain 1hr
in
rain 24hr
in
rain mn
in
humidity
%
barometer
mb
20260505153046 76 248 0.0 11.0 0.00 0.01 0.01 54 1008.5
20260505151546 75 240 4.0 13.0 0.00 0.01 0.01 51 1008.6
20260505124514 66 257 0.0 11.0 0.00 0.01 0.01 68 1009.5
20260505123002 65 235 0.0 9.0 0.00 0.01 0.01 70 1009.2
20260505121558 63 284 0.0 5.0 0.00 0.01 0.01 73 1009.1
20260505120109 61 269 0.0 0.0 0.00 0.01 0.01 78 1009.2
20260505114555 58 278 0.0 0.0 0.00 0.01 0.01 84 1009.3
20260505113054 56 277 0.0 0.0 0.00 0.01 0.01 86 1009.0
20260505111550 54 277 0.0 0.0 0.00 0.01 0.01 88 1009.0
20260505101514 52 277 0.0 0.0 0.00 0.01 0.01 86 1008.5
20260505100043 52 277 0.0 0.0 0.00 0.01 0.01 85 1008.6
20260505094541 53 277 0.0 0.0 0.00 0.01 0.01 85 1008.5
20260505093035 54 277 0.0 0.0 0.00 0.01 0.01 85 1008.7
20260505091533 54 279 0.0 0.0 0.00 0.01 0.01 84 1008.6
20260505090036 56 279 0.0 0.0 0.01 0.01 0.01 82 1008.6
20260505084527 57 279 0.0 0.0 0.01 0.01 0.01 79 1008.6
20260505083019 58 279 0.0 0.0 0.01 0.01 0.01 76 1008.4
20260505081518 61 279 0.0 6.0 0.01 0.01 0.01 70 1008.5
20260505080013 62 259 0.0 6.0 0.00 0.00 0.00 65 1008.2
20260505074511 62 236 0.0 0.0 0.00 0.00 0.00 65 1007.9
20260505073010 61 250 0.0 0.0 0.00 0.00 0.00 65 1008.0
20260505071518 61 240 0.0 5.0 0.00 0.00 0.00 65 1008.2
20260505070005 61 249 0.0 0.0 0.00 0.00 0.00 64 1008.2
20260505064510 61 223 1.0 6.0 0.00 0.00 0.00 64 1008.2
20260505063100 60 246 0.0 0.0 0.00 0.00 0.00 64 1008.4
20260505061602 60 270 0.0 0.0 0.00 0.00 0.00 64 1008.3
20260505060058 59 275 0.0 0.0 0.00 0.00 0.00 63 1008.3
20260505054558 59 255 0.0 0.0 0.00 0.00 0.00 63 1008.3
20260505053032 60 258 0.0 0.0 0.00 0.00 0.00 61 1008.3
20260505051533 61 262 0.0 0.0 0.00 0.00 0.00 60 1008.3
20260505041517 62 235 0.0 0.0 0.00 0.00 0.00 57 1008.2
20260505040019 63 234 0.0 0.0 0.00 0.00 0.00 55 1008.1
20260505034512 63 236 0.0 1.0 0.00 0.00 0.00 55 1007.9
20260505033011 64 261 0.0 6.0 0.00 0.00 0.00 52 1008.0
20260505031510 65 253 0.0 6.0 0.00 0.00 0.00 51 1008.0
20260505030021 65 243 0.0 6.0 0.00 0.00 0.00 51 1008.1
20260505024507 65 205 0.0 6.0 0.00 0.00 0.00 49 1008.2
20260505023007 66 189 0.0 12.0 0.00 0.00 0.00 49 1008.1
20260505021506 66 226 0.0 4.0 0.00 0.00 0.00 49 1008.4
20260505020004 66 186 2.0 7.0 0.00 0.00 0.00 48 1008.3
20260505014505 66 180 4.0 10.0 0.00 0.00 0.00 47 1008.3
20260505013003 67 178 2.0 13.0 0.00 0.00 0.00 47 1008.2
20260505011506 66 165 2.0 10.0 0.00 0.00 0.00 47 1008.1
20260505010002 66 205 3.0 10.0 0.00 0.00 0.00 47 1008.0
20260505004534 66 217 1.0 10.0 0.00 0.00 0.00 48 1007.9
20260505003031 66 198 3.0 11.0 0.00 0.00 0.00 48 1007.8
20260505001529 67 207 4.0 13.0 0.00 0.00 0.00 47 1007.8
20260505000029 67 182 2.0 12.0 0.00 0.00 0.00 46 1007.7
20260504234528 68 200 4.0 13.0 0.00 0.00 0.00 46 1007.6
20260504233027 68 182 6.0 16.0 0.00 0.00 0.00 45 1007.5
20260504231525 69 176 5.0 14.0 0.00 0.00 0.00 44 1007.3
20260504230027 69 251 3.0 9.0 0.00 0.00 0.00 45 1007.2
20260504224525 70 188 5.0 18.0 0.00 0.00 0.00 44 1007.1
20260504223023 71 193 2.0 10.0 0.00 0.00 0.00 44 1007.0
20260504221553 73 211 2.0 8.0 0.00 0.00 0.00 40 1007.2
20260504220109 73 186 3.0 10.0 0.00 0.00 0.00 40 1007.2
20260504214551 73 257 3.0 12.0 0.00 0.00 0.00 40 1007.4
20260504213051 73 209 0.0 12.0 0.00 0.00 0.00 39 1007.4
20260504211542 73 220 4.0 12.0 0.00 0.00 0.00 39 1007.4
20260504210041 73 250 3.0 16.0 0.00 0.00 0.00 41 1007.7
20260504204537 73 263 3.0 13.0 0.00 0.00 0.00 39 1007.6
20260504203035 73 248 4.0 15.0 0.00 0.00 0.00 41 1007.8
20260504201533 72 199 5.0 19.0 0.00 0.00 0.00 40 1008.1
20260504200039 72 241 6.0 21.0 0.00 0.00 0.00 39 1008.1
20260504194529 72 242 6.0 15.0 0.00 0.00 0.00 40 1008.1
20260504193027 72 194 2.0 19.0 0.00 0.00 0.00 38 1008.3
20260504191537 72 276 4.0 12.0 0.00 0.00 0.00 42 1008.4
20260504190024 71 187 7.0 13.0 0.00 0.00 0.00 39 1008.6
20260504184610 71 280 5.0 16.0 0.00 0.00 0.00 42 1008.8
20260504183151 71 237 5.0 14.0 0.00 0.00 0.00 41 1009.0
20260504181548 70 223 6.0 15.0 0.00 0.00 0.00 41 1009.1
20260504180041 70 190 2.0 19.0 0.00 0.00 0.00 45 1009.2
20260504174540 70 259 4.0 16.0 0.00 0.00 0.00 42 1009.5
20260504173037 69 254 3.0 20.0 0.00 0.00 0.00 44 1009.9
20260504171532 69 209 8.0 20.0 0.00 0.00 0.00 41 1010.2